Time,TemperatureF,DewpointF,PressureIn,WindDirection,WindDirectionDegrees,WindSpeedMPH,WindSpeedGustMPH,Humidity,HourlyPrecipIn,Conditions,Clouds,dailyrainin,SoftwareType,DateUTC
2013-02-24 00:00:00,41.8,37.3,30.68,SW,225,0.0,0.4,84,0.00,,,0.00,WUHU216HW,2013-02-24 08:00:00,
2013-02-24 00:05:00,41.6,37.1,30.68,SW,225,0.0,0.4,84,0.00,,,0.00,WUHU216HW,2013-02-24 08:05:00,
2013-02-24 00:10:00,41.6,37.1,30.68,SSW,203,0.9,2.0,84,0.00,,,0.00,WUHU216HW,2013-02-24 08:10:00,
2013-02-24 00:15:00,41.6,37.1,30.68,SSW,203,0.0,2.0,84,0.00,,,0.00,WUHU216HW,2013-02-24 08:15:00,
2013-02-24 00:20:00,41.6,37.1,30.68,SSW,203,1.8,1.8,84,0.00,,,0.00,WUHU216HW,2013-02-24 08:20:00,
2013-02-24 00:25:00,41.6,37.1,30.68,SSE,158,0.0,1.8,84,0.00,,,0.00,WUHU216HW,2013-02-24 08:25:00,
2013-02-24 00:30:00,41.6,37.1,30.68,SSW,203,0.0,1.6,84,0.00,,,0.00,WUHU216HW,2013-02-24 08:30:00,
2013-02-24 00:35:00,41.6,37.1,30.68,SW,225,0.0,1.8,84,0.00,,,0.00,WUHU216HW,2013-02-24 08:35:00,
2013-02-24 00:40:00,41.6,37.1,30.68,SW,225,0.7,2.5,84,0.00,,,0.00,WUHU216HW,2013-02-24 08:40:00,
2013-02-24 00:45:00,41.6,36.7,30.68,SSE,158,1.3,2.5,83,0.00,,,0.00,WUHU216HW,2013-02-24 08:45:00,
2013-02-24 00:50:00,41.6,36.7,30.68,SSW,203,3.4,3.4,83,0.00,,,0.00,WUHU216HW,2013-02-24 08:50:00,
2013-02-24 00:55:00,41.6,36.7,30.68,SW,225,1.8,3.4,83,0.00,,,0.00,WUHU216HW,2013-02-24 08:55:00,
2013-02-24 01:00:00,41.6,36.7,30.68,SE,135,0.4,2.5,83,0.00,,,0.00,WUHU216HW,2013-02-24 09:00:00,
2013-02-24 01:05:00,41.6,36.7,30.67,WSW,248,0.7,2.5,83,0.00,,,0.00,WUHU216HW,2013-02-24 09:05:00,
2013-02-24 01:10:00,41.6,36.7,30.68,ESE,113,0.4,2.5,83,0.00,,,0.00,WUHU216HW,2013-02-24 09:10:00,
2013-02-24 01:15:00,41.4,36.5,30.68,SSW,203,0.0,1.8,83,0.00,,,0.00,WUHU216HW,2013-02-24 09:15:00,
2013-02-24 01:20:00,41.4,36.5,30.68,WSW,248,0.0,1.8,83,0.00,,,0.00,WUHU216HW,2013-02-24 09:20:00,
2013-02-24 01:25:00,41.4,36.5,30.68,SSW,203,0.0,4.7,83,0.00,,,0.00,WUHU216HW,2013-02-24 09:25:00,
2013-02-24 01:30:00,41.6,36.7,30.68,ESE,113,0.0,4.7,83,0.00,,,0.00,WUHU216HW,2013-02-24 09:30:00,
2013-02-24 01:35:00,41.6,36.7,30.68,South,180,0.7,2.2,83,0.00,,,0.00,WUHU216HW,2013-02-24 09:35:00,
2013-02-24 01:40:00,41.6,36.7,30.68,SSE,158,0.4,3.4,83,0.00,,,0.00,WUHU216HW,2013-02-24 09:40:00,
2013-02-24 01:45:00,41.6,36.7,30.68,SSW,203,0.4,3.4,83,0.00,,,0.00,WUHU216HW,2013-02-24 09:45:00,
2013-02-24 01:50:00,41.6,36.7,30.68,SSW,203,0.0,1.8,83,0.00,,,0.00,WUHU216HW,2013-02-24 09:50:00,
2013-02-24 01:55:00,41.6,36.7,30.68,SSE,158,0.0,1.8,83,0.00,,,0.00,WUHU216HW,2013-02-24 09:55:00,
2013-02-24 02:00:00,41.6,36.7,30.68,SSW,203,2.2,2.2,83,0.00,,,0.00,WUHU216HW,2013-02-24 10:00:00,
2013-02-24 02:05:00,41.6,36.7,30.68,SW,225,0.2,2.2,83,0.00,,,0.00,WUHU216HW,2013-02-24 10:05:00,
2013-02-24 02:10:00,41.6,36.5,30.68,SSW,203,1.1,1.8,82,0.00,,,0.00,WUHU216HW,2013-02-24 10:10:00,
2013-02-24 02:15:00,41.6,36.5,30.68,SW,225,0.9,2.2,82,0.00,,,0.00,WUHU216HW,2013-02-24 10:15:00,
2013-02-24 02:20:00,41.8,36.6,30.68,SSW,203,0.0,2.2,82,0.00,,,0.00,WUHU216HW,2013-02-24 10:20:00,
2013-02-24 02:25:00,41.8,36.9,30.68,SSW,203,1.6,1.6,83,0.00,,,0.00,WUHU216HW,2013-02-24 10:25:00,
2013-02-24 02:30:00,41.6,36.5,30.68,South,180,0.0,1.8,82,0.00,,,0.00,WUHU216HW,2013-02-24 10:30:00,
2013-02-24 02:35:00,41.8,36.6,30.68,SSE,158,0.2,1.8,82,0.00,,,0.00,WUHU216HW,2013-02-24 10:35:00,
2013-02-24 02:40:00,41.6,36.5,30.68,South,180,0.4,2.5,82,0.00,,,0.00,WUHU216HW,2013-02-24 10:40:00,
2013-02-24 02:45:00,41.6,36.5,30.68,SW,225,2.5,2.5,82,0.00,,,0.00,WUHU216HW,2013-02-24 10:45:00,
2013-02-24 02:50:00,41.8,36.6,30.67,SSE,158,0.9,2.5,82,0.00,,,0.00,WUHU216HW,2013-02-24 10:50:00,
2013-02-24 02:55:00,41.8,36.6,30.68,SW,225,1.8,2.5,82,0.00,,,0.00,WUHU216HW,2013-02-24 10:55:00,
2013-02-24 03:00:00,41.8,36.6,30.68,SSE,158,1.1,1.8,82,0.00,,,0.00,WUHU216HW,2013-02-24 11:00:00,
2013-02-24 03:05:00,41.6,36.5,30.68,SW,225,0.9,2.5,82,0.00,,,0.00,WUHU216HW,2013-02-24 11:05:00,
2013-02-24 03:10:00,41.6,36.5,30.68,SSW,203,2.5,2.5,82,0.00,,,0.00,WUHU216HW,2013-02-24 11:10:00,
2013-02-24 03:15:00,41.8,36.6,30.68,SW,225,1.8,2.7,82,0.00,,,0.00,WUHU216HW,2013-02-24 11:15:00,
2013-02-24 03:20:00,41.6,36.5,30.68,SSW,203,0.9,2.7,82,0.00,,,0.00,WUHU216HW,2013-02-24 11:20:00,
2013-02-24 03:25:00,41.8,36.6,30.67,SSW,203,1.6,2.2,82,0.00,,,0.00,WUHU216HW,2013-02-24 11:25:00,
2013-02-24 03:30:00,41.8,36.9,30.67,ENE,68,1.3,3.1,83,0.00,,,0.00,WUHU216HW,2013-02-24 11:30:00,
2013-02-24 03:35:00,41.8,36.9,30.67,SE,135,0.7,3.4,83,0.00,,,0.00,WUHU216HW,2013-02-24 11:35:00,
2013-02-24 03:40:00,41.8,36.9,30.67,SW,225,1.6,3.4,83,0.00,,,0.00,WUHU216HW,2013-02-24 11:40:00,
2013-02-24 03:45:00,41.8,36.9,30.67,SE,135,0.4,1.6,83,0.00,,,0.00,WUHU216HW,2013-02-24 11:45:00,
2013-02-24 03:50:00,41.8,36.6,30.67,SSE,158,0.7,1.1,82,0.00,,,0.00,WUHU216HW,2013-02-24 11:50:00,
2013-02-24 03:55:00,41.8,36.9,30.67,SSW,203,0.2,2.5,83,0.00,,,0.00,WUHU216HW,2013-02-24 11:55:00,
2013-02-24 04:00:00,41.8,36.9,30.67,SSW,203,0.9,2.5,83,0.00,,,0.00,WUHU216HW,2013-02-24 12:00:00,
2013-02-24 04:05:00,41.6,36.7,30.67,South,180,2.2,2.5,83,0.00,,,0.00,WUHU216HW,2013-02-24 12:05:00,
2013-02-24 04:10:00,41.6,36.5,30.67,SSW,203,0.4,2.9,82,0.00,,,0.00,WUHU216HW,2013-02-24 12:10:00,
2013-02-24 04:15:00,41.8,36.6,30.67,SE,135,1.8,2.9,82,0.00,,,0.00,WUHU216HW,2013-02-24 12:15:00,
2013-02-24 04:20:00,41.6,36.5,30.67,SSE,158,0.0,2.9,82,0.00,,,0.00,WUHU216HW,2013-02-24 12:20:00,
2013-02-24 04:25:00,41.6,36.5,30.67,SW,225,3.8,3.8,82,0.00,,,0.00,WUHU216HW,2013-02-24 12:25:00,
2013-02-24 04:30:00,41.6,36.5,30.67,SSW,203,0.2,3.8,82,0.00,,,0.00,WUHU216HW,2013-02-24 12:30:00,
2013-02-24 04:35:00,41.6,36.5,30.67,SW,225,0.7,1.8,82,0.00,,,0.00,WUHU216HW,2013-02-24 12:35:00,
2013-02-24 04:40:00,41.6,36.7,30.66,South,180,2.7,2.7,83,0.00,,,0.00,WUHU216HW,2013-02-24 12:40:00,
2013-02-24 04:45:00,41.6,36.7,30.66,WSW,248,0.0,2.7,83,0.00,,,0.00,WUHU216HW,2013-02-24 12:45:00,
2013-02-24 04:50:00,41.6,36.7,30.66,SSW,203,1.1,2.5,83,0.00,,,0.00,WUHU216HW,2013-02-24 12:50:00,
2013-02-24 04:55:00,41.4,36.5,30.66,WSW,248,0.4,2.5,83,0.00,,,0.00,WUHU216HW,2013-02-24 12:55:00,
2013-02-24 05:00:00,41.4,36.5,30.66,South,180,1.6,2.9,83,0.00,,,0.00,WUHU216HW,2013-02-24 13:00:00,
2013-02-24 05:05:00,41.4,36.5,30.66,ENE,68,0.7,2.9,83,0.00,,,0.00,WUHU216HW,2013-02-24 13:05:00,
2013-02-24 05:10:00,41.4,36.5,30.66,SW,225,0.2,2.0,83,0.00,,,0.00,WUHU216HW,2013-02-24 13:10:00,
2013-02-24 05:15:00,41.4,36.5,30.66,SW,225,0.7,1.1,83,0.00,,,0.00,WUHU216HW,2013-02-24 13:15:00,
2013-02-24 05:20:00,41.4,36.5,30.66,ESE,113,2.0,2.0,83,0.00,,,0.00,WUHU216HW,2013-02-24 13:20:00,
2013-02-24 05:25:00,41.4,36.5,30.66,ENE,68,0.4,3.1,83,0.00,,,0.00,WUHU216HW,2013-02-24 13:25:00,
2013-02-24 05:30:00,41.4,36.5,30.66,SSE,158,0.7,4.3,83,0.00,,,0.00,WUHU216HW,2013-02-24 13:30:00,
2013-02-24 05:35:00,41.4,36.5,30.66,SSW,203,0.0,4.3,83,0.00,,,0.00,WUHU216HW,2013-02-24 13:35:00,
2013-02-24 05:40:00,41.4,36.5,30.66,SSW,203,1.8,3.4,83,0.00,,,0.00,WUHU216HW,2013-02-24 13:40:00,
2013-02-24 05:45:00,41.4,36.5,30.66,South,180,0.0,3.6,83,0.00,,,0.00,WUHU216HW,2013-02-24 13:45:00,
2013-02-24 05:50:00,41.4,36.5,30.66,South,180,1.1,3.6,83,0.00,,,0.00,WUHU216HW,2013-02-24 13:50:00,
2013-02-24 05:55:00,41.4,36.5,30.66,SW,225,1.3,3.6,83,0.00,,,0.00,WUHU216HW,2013-02-24 13:55:00,
2013-02-24 06:00:00,41.4,36.5,30.66,SSE,158,2.5,3.6,83,0.00,,,0.00,WUHU216HW,2013-02-24 14:00:00,
2013-02-24 06:05:00,41.4,36.5,30.66,South,180,0.2,3.6,83,0.00,,,0.00,WUHU216HW,2013-02-24 14:05:00,
2013-02-24 06:10:00,41.4,36.5,30.65,WSW,248,0.0,4.0,83,0.00,,,0.00,WUHU216HW,2013-02-24 14:10:00,
2013-02-24 06:15:00,41.4,36.3,30.65,SSW,203,0.4,4.0,82,0.00,,,0.00,WUHU216HW,2013-02-24 14:15:00,
2013-02-24 06:20:00,41.4,36.3,30.65,SSW,203,0.4,2.9,82,0.00,,,0.00,WUHU216HW,2013-02-24 14:20:00,
2013-02-24 06:25:00,41.6,36.5,30.65,SE,135,0.4,2.9,82,0.00,,,0.00,WUHU216HW,2013-02-24 14:25:00,
2013-02-24 06:30:00,41.6,36.5,30.65,South,180,0.7,3.1,82,0.00,,,0.00,WUHU216HW,2013-02-24 14:30:00,
2013-02-24 06:35:00,41.6,36.5,30.65,SSW,203,1.1,3.1,82,0.00,,,0.00,WUHU216HW,2013-02-24 14:35:00,
2013-02-24 06:40:00,41.6,36.5,30.65,South,180,3.8,3.8,82,0.00,,,0.00,WUHU216HW,2013-02-24 14:40:00,
2013-02-24 06:45:00,41.6,36.5,30.65,SSW,203,1.8,3.8,82,0.00,,,0.00,WUHU216HW,2013-02-24 14:45:00,
2013-02-24 06:50:00,41.8,36.6,30.64,SSE,158,0.0,1.8,82,0.00,,,0.00,WUHU216HW,2013-02-24 14:50:00,
2013-02-24 06:55:00,41.8,36.6,30.64,SSW,203,0.4,2.7,82,0.00,,,0.00,WUHU216HW,2013-02-24 14:55:00,
2013-02-24 07:00:00,41.8,36.9,30.64,SSW,203,0.9,2.7,83,0.00,,,0.00,WUHU216HW,2013-02-24 15:00:00,
2013-02-24 07:05:00,41.8,36.9,30.64,SW,225,2.7,3.6,83,0.00,,,0.00,WUHU216HW,2013-02-24 15:05:00,
2013-02-24 07:10:00,41.8,36.6,30.64,SSE,158,1.8,3.6,82,0.00,,,0.00,WUHU216HW,2013-02-24 15:10:00,
2013-02-24 07:15:00,41.9,36.8,30.64,SSE,158,3.6,4.5,82,0.00,,,0.00,WUHU216HW,2013-02-24 15:15:00,
2013-02-24 07:20:00,41.9,36.8,30.65,SSE,158,0.2,4.5,82,0.00,,,0.00,WUHU216HW,2013-02-24 15:20:00,
2013-02-24 07:25:00,41.9,36.8,30.65,SW,225,4.5,4.5,82,0.00,,,0.00,WUHU216HW,2013-02-24 15:25:00,
2013-02-24 07:30:00,42.1,36.6,30.64,SSW,203,0.4,4.5,81,0.00,,,0.00,WUHU216HW,2013-02-24 15:30:00,
2013-02-24 07:35:00,42.1,36.4,30.64,SSW,203,2.5,3.4,80,0.00,,,0.00,WUHU216HW,2013-02-24 15:35:00,
2013-02-24 07:40:00,42.1,36.6,30.65,SSE,158,2.0,3.4,81,0.00,,,0.00,WUHU216HW,2013-02-24 15:40:00,
2013-02-24 07:45:00,42.1,36.6,30.65,SSE,158,5.4,5.4,81,0.00,,,0.00,WUHU216HW,2013-02-24 15:45:00,
2013-02-24 07:50:00,42.1,36.6,30.65,SSE,158,3.4,5.4,81,0.00,,,0.00,WUHU216HW,2013-02-24 15:50:00,
2013-02-24 07:55:00,42.1,36.6,30.65,SSW,203,4.0,4.7,81,0.00,,,0.00,WUHU216HW,2013-02-24 15:55:00,
2013-02-24 08:00:00,42.1,36.6,30.65,South,180,2.5,4.7,81,0.00,,,0.00,WUHU216HW,2013-02-24 16:00:00,
2013-02-24 08:05:00,42.1,36.6,30.65,WSW,248,1.3,4.5,81,0.00,,,0.00,WUHU216HW,2013-02-24 16:05:00,
2013-02-24 08:10:00,42.1,36.6,30.65,SW,225,4.9,4.9,81,0.00,,,0.00,WUHU216HW,2013-02-24 16:10:00,
2013-02-24 08:15:00,42.1,36.6,30.65,SSW,203,4.0,4.9,81,0.00,,,0.00,WUHU216HW,2013-02-24 16:15:00,
2013-02-24 08:20:00,42.1,37.0,30.65,WSW,248,1.3,4.0,82,0.00,,,0.00,WUHU216HW,2013-02-24 16:20:00,
2013-02-24 08:25:00,42.1,36.6,30.65,WSW,248,0.7,2.9,81,0.00,,,0.00,WUHU216HW,2013-02-24 16:25:00,
2013-02-24 08:30:00,42.1,37.0,30.65,East,90,1.8,2.2,82,0.00,,,0.00,WUHU216HW,2013-02-24 16:30:00,
2013-02-24 08:35:00,42.1,37.0,30.65,SSW,203,3.4,3.4,82,0.00,,,0.00,WUHU216HW,2013-02-24 16:35:00,
2013-02-24 08:40:00,42.1,36.6,30.65,SW,225,1.8,5.4,81,0.00,,,0.00,WUHU216HW,2013-02-24 16:40:00,
2013-02-24 08:45:00,42.1,36.6,30.65,SSW,203,3.1,5.4,81,0.00,,,0.00,WUHU216HW,2013-02-24 16:45:00,
2013-02-24 08:50:00,42.3,36.8,30.65,South,180,2.5,3.1,81,0.00,,,0.00,WUHU216HW,2013-02-24 16:50:00,
2013-02-24 08:55:00,42.3,36.8,30.64,SSW,203,1.8,3.8,81,0.00,,,0.00,WUHU216HW,2013-02-24 16:55:00,
2013-02-24 09:00:00,42.5,37.0,30.64,SSW,203,0.2,3.8,81,0.00,,,0.00,WUHU216HW,2013-02-24 17:00:00,
2013-02-24 09:05:00,42.7,37.2,30.64,SW,225,4.5,4.5,81,0.00,,,0.00,WUHU216HW,2013-02-24 17:05:00,
2013-02-24 09:10:00,42.8,37.4,30.64,WSW,248,1.1,4.5,81,0.00,,,0.00,WUHU216HW,2013-02-24 17:10:00,
2013-02-24 09:15:00,43.0,37.3,30.64,SSW,203,1.6,3.4,80,0.00,,,0.00,WUHU216HW,2013-02-24 17:15:00,
2013-02-24 09:20:00,43.2,37.1,30.65,SE,135,0.9,2.5,79,0.00,,,0.00,WUHU216HW,2013-02-24 17:20:00,
2013-02-24 09:25:00,43.4,37.0,30.65,SSW,203,2.0,2.9,78,0.00,,,0.00,WUHU216HW,2013-02-24 17:25:00,
2013-02-24 09:30:00,43.6,37.2,30.64,SE,135,2.0,3.1,78,0.00,,,0.00,WUHU216HW,2013-02-24 17:30:00,
2013-02-24 09:35:00,43.6,36.8,30.64,SSE,158,2.2,3.1,77,0.00,,,0.00,WUHU216HW,2013-02-24 17:35:00,
2013-02-24 09:40:00,43.9,37.2,30.64,WSW,248,3.1,3.1,77,0.00,,,0.00,WUHU216HW,2013-02-24 17:40:00,
2013-02-24 09:45:00,43.9,36.8,30.64,NE,45,4.5,4.5,76,0.00,,,0.00,WUHU216HW,2013-02-24 17:45:00,
2013-02-24 09:50:00,44.1,37.4,30.64,WSW,248,4.0,4.5,77,0.00,,,0.00,WUHU216HW,2013-02-24 17:50:00,
2013-02-24 09:55:00,44.3,37.5,30.64,SW,225,1.3,4.0,77,0.00,,,0.00,WUHU216HW,2013-02-24 17:55:00,
2013-02-24 10:00:00,44.5,37.7,30.64,SW,225,2.2,3.4,77,0.00,,,0.00,WUHU216HW,2013-02-24 18:00:00,
2013-02-24 10:05:00,44.5,37.0,30.64,SSW,203,1.3,4.0,75,0.00,,,0.00,WUHU216HW,2013-02-24 18:05:00,
2013-02-24 10:10:00,44.6,37.2,30.63,South,180,1.1,5.4,75,0.00,,,0.00,WUHU216HW,2013-02-24 18:10:00,
2013-02-24 10:15:00,44.8,37.4,30.63,SE,135,0.7,5.4,75,0.00,,,0.00,WUHU216HW,2013-02-24 18:15:00,
2013-02-24 10:20:00,45.0,37.2,30.63,SW,225,1.8,3.1,74,0.00,,,0.00,WUHU216HW,2013-02-24 18:20:00,
2013-02-24 10:25:00,45.2,37.4,30.63,WSW,248,0.0,3.1,74,0.00,,,0.00,WUHU216HW,2013-02-24 18:25:00,
2013-02-24 10:30:00,45.2,37.4,30.63,SW,225,0.2,3.8,74,0.00,,,0.00,WUHU216HW,2013-02-24 18:30:00,
2013-02-24 10:35:00,45.4,37.2,30.63,South,180,4.9,4.9,73,0.00,,,0.00,WUHU216HW,2013-02-24 18:35:00,
2013-02-24 10:40:00,45.5,37.4,30.63,SW,225,2.0,4.9,73,0.00,,,0.00,WUHU216HW,2013-02-24 18:40:00,
2013-02-24 10:45:00,45.7,37.5,30.63,WSW,248,1.8,4.0,73,0.00,,,0.00,WUHU216HW,2013-02-24 18:45:00,
2013-02-24 10:50:00,45.7,37.5,30.63,SSE,158,2.2,4.0,73,0.00,,,0.00,WUHU216HW,2013-02-24 18:50:00,
2013-02-24 10:55:00,45.9,38.1,30.62,SSW,203,1.8,2.7,74,0.00,,,0.00,WUHU216HW,2013-02-24 18:55:00,
2013-02-24 11:00:00,45.9,38.1,30.62,SW,225,1.8,3.8,74,0.00,,,0.00,WUHU216HW,2013-02-24 19:00:00,
2013-02-24 11:05:00,46.1,38.3,30.62,SW,225,1.3,5.4,74,0.00,,,0.00,WUHU216HW,2013-02-24 19:05:00,
2013-02-24 11:10:00,46.1,37.6,30.62,WSW,248,1.6,5.4,72,0.00,,,0.00,WUHU216HW,2013-02-24 19:10:00,
2013-02-24 11:15:00,46.1,37.9,30.62,SW,225,2.0,4.7,73,0.00,,,0.00,WUHU216HW,2013-02-24 19:15:00,
2013-02-24 11:20:00,46.1,37.9,30.62,South,180,0.4,4.7,73,0.00,,,0.00,WUHU216HW,2013-02-24 19:20:00,
2013-02-24 11:25:00,46.1,38.3,30.62,SSW,203,0.7,2.0,74,0.00,,,0.00,WUHU216HW,2013-02-24 19:25:00,
2013-02-24 11:30:00,46.1,37.9,30.61,WSW,248,2.0,3.1,73,0.00,,,0.00,WUHU216HW,2013-02-24 19:30:00,
2013-02-24 11:35:00,46.1,38.3,30.61,SSW,203,0.2,3.1,74,0.00,,,0.00,WUHU216HW,2013-02-24 19:35:00,
2013-02-24 11:40:00,46.4,38.6,30.61,SSW,203,3.6,3.6,74,0.00,,,0.00,WUHU216HW,2013-02-24 19:40:00,
2013-02-24 11:45:00,46.4,38.0,30.61,SSW,203,0.2,5.4,72,0.00,,,0.00,WUHU216HW,2013-02-24 19:45:00,
2013-02-24 11:50:00,46.6,38.1,30.61,SSW,203,3.8,5.4,72,0.00,,,0.00,WUHU216HW,2013-02-24 19:50:00,
2013-02-24 11:55:00,46.8,38.3,30.61,West,270,5.4,5.4,72,0.00,,,0.00,WUHU216HW,2013-02-24 19:55:00,
2013-02-24 12:00:00,47.0,38.4,30.61,SSW,203,2.2,5.4,72,0.00,,,0.00,WUHU216HW,2013-02-24 20:00:00,
2013-02-24 12:05:00,47.2,37.9,30.60,South,180,3.4,4.5,70,0.00,,,0.00,WUHU216HW,2013-02-24 20:05:00,
2013-02-24 12:10:00,47.2,37.2,30.60,South,180,5.1,5.1,68,0.00,,,0.00,WUHU216HW,2013-02-24 20:10:00,
2013-02-24 12:15:00,47.2,37.5,30.59,SSW,203,0.9,5.1,69,0.00,,,0.00,WUHU216HW,2013-02-24 20:15:00,
2013-02-24 12:20:00,47.0,37.7,30.59,SE,135,5.1,5.1,70,0.00,,,0.00,WUHU216HW,2013-02-24 20:20:00,
2013-02-24 12:25:00,47.2,37.5,30.59,South,180,3.8,8.9,69,0.00,,,0.00,WUHU216HW,2013-02-24 20:25:00,
2013-02-24 12:30:00,47.2,37.5,30.59,WSW,248,5.4,8.9,69,0.00,,,0.00,WUHU216HW,2013-02-24 20:30:00,
2013-02-24 12:35:00,47.2,37.5,30.59,SSW,203,2.7,5.4,69,0.00,,,0.00,WUHU216HW,2013-02-24 20:35:00,
2013-02-24 12:40:00,47.2,37.9,30.59,SSW,203,1.8,5.1,70,0.00,,,0.00,WUHU216HW,2013-02-24 20:40:00,
2013-02-24 12:45:00,47.2,37.9,30.59,SSW,203,4.0,4.0,70,0.00,,,0.00,WUHU216HW,2013-02-24 20:45:00,
2013-02-24 12:50:00,47.0,38.4,30.58,SSE,158,2.5,5.1,72,0.00,,,0.00,WUHU216HW,2013-02-24 20:50:00,
2013-02-24 12:55:00,47.0,38.4,30.58,SW,225,5.8,5.8,72,0.00,,,0.00,WUHU216HW,2013-02-24 20:55:00,
2013-02-24 13:00:00,46.8,38.3,30.58,ENE,68,0.9,5.8,72,0.00,,,0.00,WUHU216HW,2013-02-24 21:00:00,
2013-02-24 13:05:00,46.8,38.3,30.58,ESE,113,2.7,5.1,72,0.00,,,0.00,WUHU216HW,2013-02-24 21:05:00,
2013-02-24 13:10:00,46.6,38.4,30.57,SE,135,1.3,5.1,73,0.00,,,0.00,WUHU216HW,2013-02-24 21:10:00,
2013-02-24 13:15:00,46.6,38.8,30.57,ESE,113,0.9,4.7,74,0.00,,,0.00,WUHU216HW,2013-02-24 21:15:00,
2013-02-24 13:20:00,46.8,39.0,30.57,SW,225,3.1,3.6,74,0.00,,,0.00,WUHU216HW,2013-02-24 21:20:00,
2013-02-24 13:25:00,46.6,38.8,30.57,SSE,158,0.0,4.0,74,0.00,,,0.00,WUHU216HW,2013-02-24 21:25:00,
2013-02-24 13:30:00,46.6,38.4,30.57,SSW,203,4.3,5.4,73,0.00,,,0.00,WUHU216HW,2013-02-24 21:30:00,
2013-02-24 13:35:00,46.4,38.6,30.57,South,180,4.0,5.4,74,0.00,,,0.00,WUHU216HW,2013-02-24 21:35:00,
2013-02-24 13:40:00,46.6,38.8,30.57,West,270,0.9,4.0,74,0.00,,,0.00,WUHU216HW,2013-02-24 21:40:00,
2013-02-24 13:45:00,46.6,38.8,30.57,SW,225,4.7,4.7,74,0.00,,,0.00,WUHU216HW,2013-02-24 21:45:00,
2013-02-24 13:50:00,46.6,38.8,30.56,SW,225,2.0,4.7,74,0.00,,,0.00,WUHU216HW,2013-02-24 21:50:00,
2013-02-24 13:55:00,46.6,38.4,30.56,South,180,1.8,3.8,73,0.00,,,0.00,WUHU216HW,2013-02-24 21:55:00,
2013-02-24 14:00:00,46.8,38.3,30.56,SW,225,1.8,3.8,72,0.00,,,0.00,WUHU216HW,2013-02-24 22:00:00,
2013-02-24 14:05:00,46.8,38.3,30.56,SSW,203,2.7,3.1,72,0.00,,,0.00,WUHU216HW,2013-02-24 22:05:00,
2013-02-24 14:10:00,46.8,38.3,30.56,SSW,203,2.7,2.7,72,0.00,,,0.00,WUHU216HW,2013-02-24 22:10:00,
2013-02-24 14:30:00,47.5,39.6,30.55,South,180,2.7,2.7,74,0.00,,,0.00,WUHU216HW,2013-02-24 22:30:00,
2013-02-24 14:35:00,47.3,39.1,30.54,NW,315,0.9,2.7,73,0.00,,,0.00,WUHU216HW,2013-02-24 22:35:00,
2013-02-24 14:40:00,47.3,38.8,30.54,SE,135,4.0,4.0,72,0.00,,,0.00,WUHU216HW,2013-02-24 22:40:00,
2013-02-24 14:45:00,47.3,38.8,30.54,South,180,2.2,4.3,72,0.00,,,0.00,WUHU216HW,2013-02-24 22:45:00,
2013-02-24 14:50:00,47.2,39.0,30.54,SW,225,2.2,4.3,73,0.00,,,0.00,WUHU216HW,2013-02-24 22:50:00,
2013-02-24 14:55:00,47.2,38.6,30.54,South,180,0.4,6.3,72,0.00,,,0.00,WUHU216HW,2013-02-24 22:55:00,
2013-02-24 15:00:00,47.2,38.6,30.53,SSW,203,1.3,6.3,72,0.00,,,0.00,WUHU216HW,2013-02-24 23:00:00,
2013-02-24 15:05:00,47.2,38.6,30.53,West,270,4.0,5.4,72,0.00,,,0.00,WUHU216HW,2013-02-24 23:05:00,
2013-02-24 15:10:00,47.2,38.6,30.53,SSW,203,4.7,5.4,72,0.00,,,0.00,WUHU216HW,2013-02-24 23:10:00,
2013-02-24 15:15:00,47.2,39.0,30.52,SW,225,3.1,4.7,73,0.00,,,0.00,WUHU216HW,2013-02-24 23:15:00,
2013-02-24 15:20:00,47.0,38.4,30.52,South,180,4.7,4.7,72,0.00,,,0.00,WUHU216HW,2013-02-24 23:20:00,
2013-02-24 15:25:00,46.8,38.6,30.52,SW,225,1.8,4.7,73,0.00,,,0.00,WUHU216HW,2013-02-24 23:25:00,
2013-02-24 15:30:00,46.8,38.6,30.52,South,180,2.0,4.7,73,0.00,,,0.00,WUHU216HW,2013-02-24 23:30:00,
2013-02-24 15:35:00,46.6,38.8,30.52,WSW,248,3.6,4.7,74,0.00,,,0.00,WUHU216HW,2013-02-24 23:35:00,
2013-02-24 15:40:00,46.6,39.2,30.51,ENE,68,2.5,4.7,75,0.00,,,0.00,WUHU216HW,2013-02-24 23:40:00,
2013-02-24 15:45:00,46.6,39.2,30.51,SSW,203,1.1,5.1,75,0.00,,,0.00,WUHU216HW,2013-02-24 23:45:00,
2013-02-24 15:50:00,46.8,39.3,30.51,East,90,1.8,5.1,75,0.00,,,0.00,WUHU216HW,2013-02-24 23:50:00,
2013-02-24 15:55:00,46.8,39.3,30.51,SW,225,1.6,3.1,75,0.00,,,0.00,WUHU216HW,2013-02-24 23:55:00,
2013-02-24 16:00:00,46.6,39.2,30.51,SW,225,3.4,3.4,75,0.00,,,0.00,WUHU216HW,2013-02-25 00:00:00,
2013-02-24 16:05:00,46.6,39.5,30.50,SSW,203,3.1,4.0,76,0.00,,,0.00,WUHU216HW,2013-02-25 00:05:00,
2013-02-24 16:10:00,46.4,39.0,30.50,SW,225,0.7,4.0,75,0.00,,,0.00,WUHU216HW,2013-02-25 00:10:00,
2013-02-24 16:15:00,46.4,39.3,30.50,SSW,203,2.5,3.1,76,0.00,,,0.00,WUHU216HW,2013-02-25 00:15:00,
2013-02-24 16:20:00,46.4,39.0,30.50,SSW,203,2.7,4.7,75,0.00,,,0.00,WUHU216HW,2013-02-25 00:20:00,
2013-02-24 16:25:00,46.3,39.2,30.49,West,270,1.6,4.7,76,0.00,,,0.00,WUHU216HW,2013-02-25 00:25:00,
2013-02-24 16:30:00,46.3,39.2,30.49,SW,225,0.0,4.0,76,0.00,,,0.00,WUHU216HW,2013-02-25 00:30:00,
2013-02-24 16:35:00,46.3,38.8,30.49,SW,225,1.8,3.4,75,0.00,,,0.00,WUHU216HW,2013-02-25 00:35:00,
2013-02-24 16:40:00,46.3,39.2,30.48,West,270,0.9,1.8,76,0.00,,,0.00,WUHU216HW,2013-02-25 00:40:00,
2013-02-24 16:45:00,46.3,39.2,30.48,SW,225,5.1,5.1,76,0.00,,,0.00,WUHU216HW,2013-02-25 00:45:00,
2013-02-24 16:50:00,46.3,38.8,30.48,SSW,203,1.8,5.1,75,0.00,,,0.00,WUHU216HW,2013-02-25 00:50:00,
2013-02-24 16:55:00,46.1,38.6,30.48,North,0,0.0,5.1,75,0.00,,,0.00,WUHU216HW,2013-02-25 00:55:00,
2013-02-24 17:00:00,46.1,38.6,30.47,SSE,158,2.2,5.1,75,0.00,,,0.00,WUHU216HW,2013-02-25 01:00:00,
2013-02-24 17:05:00,46.1,39.0,30.47,SSW,203,0.9,4.7,76,0.00,,,0.00,WUHU216HW,2013-02-25 01:05:00,
2013-02-24 17:10:00,46.4,39.0,30.47,SW,225,4.5,4.7,75,0.00,,,0.00,WUHU216HW,2013-02-25 01:10:00,
2013-02-24 17:15:00,46.8,39.6,30.47,SSE,158,1.8,4.7,76,0.00,,,0.00,WUHU216HW,2013-02-25 01:15:00,
2013-02-24 17:20:00,47.0,39.2,30.46,WNW,293,0.4,5.4,74,0.00,,,0.00,WUHU216HW,2013-02-25 01:20:00,
2013-02-24 17:25:00,47.0,39.2,30.46,SW,225,1.6,5.4,74,0.00,,,0.00,WUHU216HW,2013-02-25 01:25:00,
2013-02-24 17:30:00,47.2,39.2,30.46,SW,225,2.7,4.0,74,0.00,,,0.00,WUHU216HW,2013-02-25 01:30:00,
2013-02-24 17:35:00,47.2,38.6,30.46,SE,135,2.9,4.0,72,0.00,,,0.00,WUHU216HW,2013-02-25 01:35:00,
2013-02-24 17:40:00,47.0,38.8,30.45,SSW,203,3.8,3.8,73,0.00,,,0.00,WUHU216HW,2013-02-25 01:40:00,
2013-02-24 17:45:00,46.8,39.0,30.45,SSW,203,0.4,4.0,74,0.00,,,0.00,WUHU216HW,2013-02-25 01:45:00,
2013-02-24 17:50:00,46.8,38.6,30.45,WSW,248,1.8,4.0,73,0.00,,,0.00,WUHU216HW,2013-02-25 01:50:00,
2013-02-24 17:55:00,46.6,38.8,30.44,SSW,203,1.8,4.0,74,0.00,,,0.00,WUHU216HW,2013-02-25 01:55:00,
2013-02-24 18:00:00,46.6,38.8,30.44,SW,225,1.8,2.5,74,0.00,,,0.00,WUHU216HW,2013-02-25 02:00:00,
2013-02-24 18:05:00,46.4,38.3,30.44,SE,135,0.7,3.4,73,0.00,,,0.00,WUHU216HW,2013-02-25 02:05:00,
2013-02-24 18:10:00,46.4,38.6,30.44,SW,225,1.8,3.4,74,0.00,,,0.00,WUHU216HW,2013-02-25 02:10:00,
2013-02-24 18:15:00,46.3,38.4,30.44,SW,225,1.1,3.4,74,0.00,,,0.00,WUHU216HW,2013-02-25 02:15:00,
2013-02-24 18:20:00,46.1,38.3,30.44,WNW,293,0.4,2.7,74,0.00,,,0.00,WUHU216HW,2013-02-25 02:20:00,
2013-02-24 18:25:00,46.1,38.6,30.43,SW,225,0.9,1.8,75,0.00,,,0.00,WUHU216HW,2013-02-25 02:25:00,
2013-02-24 18:30:00,46.1,38.6,30.43,NNW,338,0.0,1.8,75,0.00,,,0.00,WUHU216HW,2013-02-25 02:30:00,
2013-02-24 18:35:00,46.1,38.6,30.43,SW,225,0.0,0.9,75,0.00,,,0.00,WUHU216HW,2013-02-25 02:35:00,
2013-02-24 18:40:00,45.9,38.4,30.43,SW,225,1.3,1.3,75,0.00,,,0.00,WUHU216HW,2013-02-25 02:40:00,
2013-02-24 18:45:00,46.1,39.0,30.42,South,180,1.3,2.5,76,0.00,,,0.00,WUHU216HW,2013-02-25 02:45:00,
2013-02-24 18:50:00,46.3,39.5,30.42,SSW,203,1.1,2.5,77,0.00,,,0.00,WUHU216HW,2013-02-25 02:50:00,
2013-02-24 18:55:00,46.4,39.7,30.42,SSW,203,2.5,2.9,77,0.00,,,0.00,WUHU216HW,2013-02-25 02:55:00,
2013-02-24 19:00:00,46.4,39.3,30.42,SW,225,6.3,6.3,76,0.00,,,0.00,WUHU216HW,2013-02-25 03:00:00,
2013-02-24 19:05:00,46.6,39.8,30.41,SSW,203,0.7,6.3,77,0.00,,,0.00,WUHU216HW,2013-02-25 03:05:00,
2013-02-24 19:10:00,46.8,40.0,30.41,WSW,248,3.1,6.3,77,0.00,,,0.00,WUHU216HW,2013-02-25 03:10:00,
2013-02-24 19:15:00,47.0,39.4,30.41,WSW,248,2.5,3.4,75,0.00,,,0.00,WUHU216HW,2013-02-25 03:15:00,
2013-02-24 19:20:00,47.0,39.4,30.41,SSW,203,0.0,2.5,75,0.00,,,0.00,WUHU216HW,2013-02-25 03:20:00,
2013-02-24 19:25:00,47.0,39.4,30.41,SW,225,2.7,2.7,75,0.00,,,0.00,WUHU216HW,2013-02-25 03:25:00,
2013-02-24 19:30:00,46.8,39.3,30.41,WSW,248,0.0,2.7,75,0.00,,,0.00,WUHU216HW,2013-02-25 03:30:00,
2013-02-24 19:35:00,46.6,39.2,30.40,SSW,203,1.3,2.5,75,0.00,,,0.00,WUHU216HW,2013-02-25 03:35:00,
2013-02-24 19:40:00,46.4,38.6,30.40,West,270,0.7,2.5,74,0.00,,,0.00,WUHU216HW,2013-02-25 03:40:00,
2013-02-24 19:45:00,46.4,38.6,30.40,SW,225,1.1,2.5,74,0.00,,,0.00,WUHU216HW,2013-02-25 03:45:00,
2013-02-24 19:50:00,46.4,38.3,30.39,South,180,2.5,2.5,73,0.00,,,0.00,WUHU216HW,2013-02-25 03:50:00,
2013-02-24 19:55:00,46.3,38.4,30.39,South,180,0.4,2.7,74,0.00,,,0.00,WUHU216HW,2013-02-25 03:55:00,
2013-02-24 20:00:00,46.1,38.3,30.38,SW,225,2.5,2.7,74,0.00,,,0.00,WUHU216HW,2013-02-25 04:00:00,
2013-02-24 20:05:00,46.1,37.9,30.38,South,180,2.5,3.4,73,0.00,,,0.00,WUHU216HW,2013-02-25 04:05:00,
2013-02-24 20:10:00,46.1,38.3,30.37,WSW,248,2.5,3.4,74,0.00,,,0.00,WUHU216HW,2013-02-25 04:10:00,
2013-02-24 20:15:00,46.1,37.6,30.37,SW,225,2.0,4.9,72,0.00,,,0.00,WUHU216HW,2013-02-25 04:15:00,
2013-02-24 20:20:00,46.1,37.6,30.37,SSW,203,1.1,4.9,72,0.00,,,0.00,WUHU216HW,2013-02-25 04:20:00,
2013-02-24 20:25:00,46.1,37.6,30.37,SW,225,2.7,4.0,72,0.00,,,0.00,WUHU216HW,2013-02-25 04:25:00,
2013-02-24 20:30:00,46.1,37.6,30.36,SW,225,1.8,2.7,72,0.00,,,0.00,WUHU216HW,2013-02-25 04:30:00,
2013-02-24 20:35:00,46.3,37.8,30.36,SSW,203,1.3,2.0,72,0.00,,,0.00,WUHU216HW,2013-02-25 04:35:00,
2013-02-24 20:40:00,46.3,37.8,30.36,NW,315,2.2,2.9,72,0.00,,,0.00,WUHU216HW,2013-02-25 04:40:00,
2013-02-24 20:45:00,46.3,37.8,30.35,SSW,203,4.7,4.7,72,0.00,,,0.00,WUHU216HW,2013-02-25 04:45:00,
2013-02-24 20:50:00,46.3,37.8,30.35,West,270,0.4,4.7,72,0.00,,,0.00,WUHU216HW,2013-02-25 04:50:00,
2013-02-24 20:55:00,46.3,37.8,30.35,SSW,203,1.1,2.2,72,0.00,,,0.00,WUHU216HW,2013-02-25 04:55:00,
2013-02-24 21:00:00,46.3,37.8,30.35,SSW,203,0.0,4.0,72,0.00,,,0.00,WUHU216HW,2013-02-25 05:00:00,
2013-02-24 21:05:00,46.3,37.8,30.35,North,0,0.4,4.0,72,0.00,,,0.00,WUHU216HW,2013-02-25 05:05:00,
2013-02-24 21:10:00,46.3,37.8,30.35,SSE,158,0.0,2.2,72,0.00,,,0.00,WUHU216HW,2013-02-25 05:10:00,
2013-02-24 21:15:00,46.3,37.8,30.35,SE,135,2.2,3.8,72,0.00,,,0.00,WUHU216HW,2013-02-25 05:15:00,
2013-02-24 21:20:00,46.3,37.8,30.34,SSW,203,0.0,3.8,72,0.00,,,0.00,WUHU216HW,2013-02-25 05:20:00,
2013-02-24 21:25:00,46.4,38.0,30.34,South,180,0.9,3.4,72,0.00,,,0.00,WUHU216HW,2013-02-25 05:25:00,
2013-02-24 21:30:00,46.4,38.0,30.34,SW,225,4.7,4.7,72,0.00,,,0.00,WUHU216HW,2013-02-25 05:30:00,
2013-02-24 21:35:00,46.4,37.6,30.34,WSW,248,3.1,4.7,71,0.00,,,0.00,WUHU216HW,2013-02-25 05:35:00,
2013-02-24 21:40:00,46.4,37.3,30.34,SSE,158,1.1,4.7,70,0.00,,,0.00,WUHU216HW,2013-02-25 05:40:00,
2013-02-24 21:45:00,46.6,37.5,30.34,South,180,1.6,4.7,70,0.00,,,0.00,WUHU216HW,2013-02-25 05:45:00,
2013-02-24 21:50:00,46.6,37.8,30.33,SSE,158,0.9,3.1,71,0.00,,,0.00,WUHU216HW,2013-02-25 05:50:00,
2013-02-24 21:55:00,46.6,37.5,30.33,South,180,1.8,4.7,70,0.00,,,0.00,WUHU216HW,2013-02-25 05:55:00,
2013-02-24 22:00:00,46.6,37.5,30.33,SE,135,0.4,4.7,70,0.00,,,0.00,WUHU216HW,2013-02-25 06:00:00,
2013-02-24 22:05:00,46.6,37.5,30.32,SSE,158,4.7,4.7,70,0.00,,,0.00,WUHU216HW,2013-02-25 06:05:00,
2013-02-24 22:10:00,46.4,36.9,30.32,NNE,23,1.8,6.9,69,0.00,,,0.00,WUHU216HW,2013-02-25 06:10:00,
2013-02-24 22:15:00,46.4,36.9,30.32,NNE,23,1.8,6.9,69,0.00,,,0.00,WUHU216HW,2013-02-25 06:15:00,
2013-02-24 22:40:00,46.6,37.5,30.31,East,90,1.6,1.6,70,0.00,,,0.00,WUHU216HW,2013-02-25 06:40:00,
2013-02-24 22:45:00,46.4,37.3,30.31,SSE,158,2.5,4.3,70,0.00,,,0.00,WUHU216HW,2013-02-25 06:45:00,
2013-02-24 22:50:00,46.4,36.9,30.31,SSW,203,5.1,5.1,69,0.00,,,0.00,WUHU216HW,2013-02-25 06:50:00,
2013-02-24 22:55:00,46.4,36.5,30.30,SW,225,2.5,8.9,68,0.00,,,0.00,WUHU216HW,2013-02-25 06:55:00,
2013-02-24 23:00:00,46.6,36.6,30.30,SW,225,2.5,8.9,68,0.00,,,0.00,WUHU216HW,2013-02-25 07:00:00,
2013-02-24 23:04:00,46.4,36.1,30.29,SSW,203,3.8,7.4,67,0.00,,,0.00,WUHU216HW,2013-02-25 07:04:00,
2013-02-24 23:09:00,46.4,36.5,30.30,South,180,1.8,8.7,68,0.00,,,0.00,WUHU216HW,2013-02-25 07:09:00,
2013-02-24 23:14:00,46.4,36.5,30.29,South,180,2.5,8.7,68,0.00,,,0.00,WUHU216HW,2013-02-25 07:14:00,
2013-02-24 23:19:00,46.4,36.9,30.28,WSW,248,2.7,6.9,69,0.00,,,0.00,WUHU216HW,2013-02-25 07:19:00,
2013-02-24 23:24:00,46.3,36.3,30.27,SSE,158,2.2,6.9,68,0.00,,,0.00,WUHU216HW,2013-02-25 07:24:00,
2013-02-24 23:29:00,46.3,36.3,30.27,SW,225,5.6,6.9,68,0.00,,,0.00,WUHU216HW,2013-02-25 07:29:00,
2013-02-24 23:34:00,46.4,36.5,30.27,NW,315,1.1,5.6,68,0.00,,,0.00,WUHU216HW,2013-02-25 07:34:00,
2013-02-24 23:39:00,46.4,36.9,30.27,SSW,203,2.5,3.4,69,0.00,,,0.00,WUHU216HW,2013-02-25 07:39:00,
2013-02-24 23:44:00,46.4,36.5,30.27,SSW,203,2.2,5.8,68,0.00,,,0.00,WUHU216HW,2013-02-25 07:44:00,
2013-02-24 23:49:00,46.4,36.5,30.27,West,270,2.0,5.8,68,0.00,,,0.00,WUHU216HW,2013-02-25 07:49:00,
2013-02-24 23:54:00,46.4,36.9,30.26,SW,225,4.7,5.4,69,0.00,,,0.00,WUHU216HW,2013-02-25 07:54:00,
2013-02-24 23:59:00,46.3,36.7,30.26,SSE,158,6.9,6.9,69,0.00,,,0.00,WUHU216HW,2013-02-25 07:59:00,